Location: Lake Zurich
(42.1970°N, 88.0930°W)
Time: 07:16:04
(UTC-05:00)

Daily predictions for brighter satellites

Satellite Brightness Start Highest point End
(mag) Time Altitude Azimuth Time Altitude Azimuth Time Altitude Azimuth
Resurs 01 Rocket 2.4 19:05:53 10° SE 19:09:49 31° ENE 19:13:45 10° N
NOSS 3-2 (A) 3.9 19:05:03 10° S 19:10:35 39° ESE 19:16:32 10° NE
Okean 3 Rocket 3.8 19:06:30 10° N 19:10:58 53° E 19:15:24 10° SSE
Cosmos 2333 Rocket 2.6 19:05:39 10° SSW 19:11:24 75° WNW 19:17:13 10° NNE
SAR-Lupe-4 3.5 19:08:02 10° SSE 19:11:35 68° ENE 19:15:09 10° N
CZ-2C R/B 4.2 19:07:10 10° SSW 19:11:47 37° W 19:16:18 10° NNW
Cosmos 292 Rocket 3.7 19:07:00 10° SSW 19:11:47 78° ESE 19:16:37 10° NNE
USA 238 DEB 3.9 19:08:16 10° SW 19:15:20 87° NW 19:22:26 10° NE
USA 238 3.9 19:08:22 10° SW 19:15:26 87° WNW 19:22:32 10° NE
Cosmos 1484 Rocket 3.4 19:15:11 10° S 19:18:57 62° W 19:22:49 10° NNW
SL-19 R/B 4.4 19:13:45 10° SSE 19:19:21 86° WSW 19:25:16 10° NNW
Spot 1 4.5 19:15:23 10° SE 19:20:00 49° ENE 19:24:23 10° N
Atlas Centaur 2 4.2 19:13:31 10° WSW 19:20:58 34° S 19:27:57 10° SE
ATLAS CENTAUR R/B 1.3 19:18:43 10° NNW 19:22:59 90° NNE 19:26:54 10° SSE
BREEZE-M DEB (TANK) 4.3 19:20:33 10° WNW 19:23:50 53° SSW 19:33:41 10° SE
ALOS 3.1 19:27:35 10° SE 19:31:38 30° ENE 19:35:41 10° N
Cosmos 1437 3.1 19:31:03 10° NNW 19:34:19 71° W 19:37:34 10° S
Cosmos 1766 3.2 19:34:28 10° S 19:38:23 71° E 19:42:22 10° NNE
FREGAT/IRIS 2.7 19:36:08 10° S 19:39:14 80° WSW 19:42:21 10° NNW
Spot 2 Rocket 3.4 19:34:29 10° SSE 19:39:28 68° ENE 19:44:29 10° N
Cosmos 2237 Rocket 3.1 19:34:20 10° SW 19:39:53 53° WNW 19:45:27 10° NNE
Cosmos 2056 Rocket 3.7 19:35:43 10° NNW 19:41:10 82° WSW 19:46:35 10° SSE
NOAA 12 4.3 19:36:55 10° S 19:42:10 78° WSW 19:47:28 10° NNW
OAO 3 Rocket 4.3 19:38:56 10° SW 19:43:07 30° S 19:46:05 17° ESE
COSMO-SKYMED 1 4.4 19:40:36 10° N 19:44:34 35° WNW 19:48:31 10° SW
NOSS 3-2 (C) 3.5 19:41:31 10° SSW 19:47:25 57° ESE 19:53:50 10° NE
Helios 1A 2.9 19:43:23 10° SSE 19:47:32 70° ENE 19:51:43 10° N
CZ-4C R/B 3.2 19:43:31 10° WSW 19:48:42 48° NW 19:54:35 10° NNE
CENTAUR R/B 4.1 19:48:03 10° SE 19:48:51 12° SE 19:48:51 12° SE
ATLAS 5 CENTAUR R/B 2.1 19:47:08 10° S 19:51:37 44° ESE 19:56:28 10° NE
ASTEX 1 4.0 19:47:26 10° NNE 19:51:53 33° E 19:56:17 10° SSE
CZ-2D R/B 3.9 19:52:08 19° SE 19:54:25 36° ENE 19:58:02 10° N
Cosmos 1953 2.4 19:51:00 10° SSE 19:54:51 48° E 19:58:42 10° NNE
SL-16 R/B 2.3 19:52:42 10° SSW 19:58:23 83° WNW 20:04:07 10° NNE
Aureole 2 Rocket 3.3 19:56:05 10° SSW 20:00:27 69° WNW 20:04:47 10° NNE
Cosmos 2034 Rocket 3.9 19:56:58 10° S 20:03:09 71° E 20:09:28 10° NNE
Cosmos 1464 Rocket 4.1 20:00:07 10° S 20:06:23 82° W 20:12:37 10° N
Cosmos 1766 Rocket 3.5 20:02:12 10° N 20:06:37 88° E 20:10:57 10° S
Cosmos 1805 3.1 20:07:57 10° S 20:11:52 79° E 20:15:49 10° N
H-2A R/B 4.4 20:14:39 10° NE 20:14:39 10° NE 20:14:43 10° NE
Cosmos 724 4.4 20:08:23 10° SSW 20:14:06 55° ESE 20:20:01 10° NE
H-2A R/B 2.7 20:12:11 28° SSE 20:14:07 62° ENE 20:17:59 10° N
Meteor 1-29 3.5 20:13:10 10° N 20:16:40 61° WNW 20:20:06 10° SSW
USA 215 3.5 20:16:47 10° NE 20:23:16 70° NW 20:29:45 10° WSW
Cosmos 1544 2.9 20:23:46 10° S 20:27:29 82° E 20:31:15 10° N
Cosmos 1346 3.7 20:24:46 10° N 20:27:00 46° N 20:27:00 46° N
FENGYUN 3A 3.8 20:26:16 10° S 20:31:37 76° WSW 20:37:02 10° NNW
Cosmos 1470 4.3 20:34:27 23° NNE 20:34:27 23° NNE 20:36:07 10° NNE
Cosmos-2242 3.3 20:28:36 10° SSW 20:32:55 68° W 20:37:18 10° N
ERS-1 Rocket 3.4 20:34:40 39° ENE 20:34:41 39° ENE 20:39:20 10° N
Helios 1B rocket 4.1 20:31:54 10° N 20:35:39 34° WNW 20:39:23 10° SW
Cosmos 1758 4.2 20:31:41 10° SSW 20:35:39 52° W 20:39:41 10° N
Cosmos 1452 Rocket 4.0 20:32:45 10° NNW 20:37:56 60° WSW 20:41:51 17° S
Cosmos 1842 Rocket 3.4 20:39:26 66° E 20:39:26 66° E 20:43:35 10° NNE
Cosmos 1500 Rocket 3.4 20:36:57 10° N 20:41:22 74° E 20:41:43 69° ESE
SeaSat 1 2.3 20:36:55 10° NNE 20:41:53 78° ESE 20:46:49 10° SSW
Cosmos 2369 Rocket 2.6 20:37:54 10° NNW 20:43:17 42° ENE 20:43:36 42° ENE
Cosmos 1603 3.6 20:39:42 10° SSW 20:45:26 89° WNW 20:51:14 10° NNE
Resurs 01 Rocket 3.8 20:42:37 10° SSW 20:46:17 25° W 20:49:57 10° NW
Cosmos 839 Rocket 4.5 20:40:00 10° NNW 20:47:43 52° NE 20:49:20 44° E
Cosmos 2151 4.3 20:49:05 10° N 20:51:24 29° NNE 20:51:24 29° NNE
Cosmos 1943 Rocket 3.5 20:50:02 10° N 20:53:53 24° NE 20:53:53 24° NE
Cosmos 1939 Rocket 4.4 21:00:35 27° N 21:00:35 27° N 21:02:35 10° N
Cosmos 1420 Rocket 4.3 20:56:44 10° NNW 21:02:00 67° WSW 21:03:18 49° SSW
Cosmos 1674 3.8 21:04:10 10° NNW 21:07:21 44° WNW 21:07:21 44° WNW
ALOS 4.1 21:05:01 10° SSW 21:09:01 28° W 21:13:03 10° NW
Atlas Centaur 2 4.4 21:03:55 10° WSW 21:09:38 21° SSW 21:11:38 19° S
Cosmos 1655 Rocket 3.9 21:06:45 10° N 21:12:38 65° ENE 21:12:38 65° ENE
GP-B 3.8 21:12:47 10° N 21:16:39 52° WNW 21:16:39 52° WNW
H-2A R/B 4.5 21:24:26 11° NNE 21:24:26 11° NNE 21:24:37 10° NNE
Envisat 3.6 21:30:15 54° NW 21:30:15 54° NW 21:34:15 10° NNW
ATLAS 5 CENTAUR R/B 3.7 21:32:13 10° WSW 21:36:29 29° NW 21:41:05 10° NNE
Cosmos 1634 Rocket 4.5 21:33:47 26° SSW 21:37:15 57° W 21:43:23 10° N
Cosmos 2026 Rocket 4.1 21:33:25 10° NNW 21:39:13 70° WNW 21:39:13 70° WNW
CENTAUR R/B 4.2 21:34:50 10° SW 21:47:41 11° NE 21:47:49 10° NE
UNK 4.5 21:30:50 10° WNW 21:46:59 62° NNE 21:47:08 62° NNE
H-2A R/B 4.4 21:51:48 20° NNW 21:51:48 20° NNW 21:53:10 10° NNW
Cosmos 2369 Rocket 4.1 22:22:19 10° NW 22:25:24 24° WNW 22:25:24 24° WNW
Cosmos 1943 Rocket 4.2 22:33:14 10° NNW 22:35:24 23° NW 22:35:24 23° NW
